SWA1752 KHOU-KSAT

Flight info

Callsign SWA1752
Flight time 0h 37m
Altitude 28000
Route RETYR8 WAILN QERVO3
Aircraft B737/M-SADE2E3GIJ4RWZ/LB1D1

Departure

Time 2026-05-09 00:28
Airport William P. Hobby Airport (KHOU)

Arrival

Time 2026-05-09 01:06
Airport San Antonio International Airport (KSAT)
Time Latitude Longitude Altitude Speed Heading
2026-05-08 23:38 29.65215 -95.27782 51 ft 0 kts 338°
2026-05-09 00:04 29.65210 -95.27779 51 ft 4 kts 338°
2026-05-09 00:04 29.65185 -95.27768 48 ft 4 kts 338°
2026-05-09 00:04 29.65161 -95.27754 51 ft 4 kts 319°
2026-05-09 00:04 29.65145 -95.27731 51 ft 4 kts 283°
2026-05-09 00:05 29.65143 -95.27717 51 ft 1 kts 269°
2026-05-09 00:07 29.65143 -95.27718 51 ft 1 kts 269°
2026-05-09 00:07 29.65143 -95.27741 51 ft 6 kts 269°
2026-05-09 00:08 29.65142 -95.27806 51 ft 10 kts 269°
2026-05-09 00:08 29.65158 -95.27886 51 ft 10 kts 308°
2026-05-09 00:08 29.65207 -95.27947 50 ft 10 kts 314°
2026-05-09 00:08 29.65254 -95.28003 51 ft 9 kts 313°
2026-05-09 00:09 29.65277 -95.28031 51 ft 0 kts 314°
2026-05-09 00:16 29.65293 -95.28034 51 ft 3 kts 21°
2026-05-09 00:17 29.65289 -95.28019 51 ft 3 kts 136°
2026-05-09 00:17 29.65259 -95.28014 48 ft 6 kts 184°
2026-05-09 00:17 29.65210 -95.28011 51 ft 8 kts 159°
2026-05-09 00:17 29.65166 -95.27971 47 ft 8 kts 135°
2026-05-09 00:18 29.65128 -95.27926 51 ft 8 kts 133°
2026-05-09 00:18 29.65101 -95.27875 49 ft 7 kts 108°
2026-05-09 00:18 29.65097 -95.27817 48 ft 7 kts 89°
2026-05-09 00:18 29.65099 -95.27752 51 ft 9 kts 87°
2026-05-09 00:19 29.65091 -95.27673 49 ft 10 kts 121°
2026-05-09 00:19 29.65026 -95.27653 51 ft 10 kts 180°
2026-05-09 00:19 29.64968 -95.27689 51 ft 10 kts 224°
2026-05-09 00:19 29.64920 -95.27742 47 ft 9 kts 223°
2026-05-09 00:20 29.64874 -95.27793 49 ft 8 kts 224°
2026-05-09 00:20 29.64856 -95.27813 51 ft 0 kts 224°
2026-05-09 00:21 29.64853 -95.27816 51 ft 3 kts 224°
2026-05-09 00:21 29.64793 -95.27882 51 ft 19 kts 224°
2026-05-09 00:21 29.64695 -95.27989 50 ft 19 kts 224°
2026-05-09 00:21 29.64600 -95.28095 51 ft 19 kts 224°
2026-05-09 00:22 29.64507 -95.28196 51 ft 18 kts 224°
2026-05-09 00:22 29.64418 -95.28295 51 ft 17 kts 224°
2026-05-09 00:22 29.64332 -95.28389 51 ft 17 kts 224°
2026-05-09 00:22 29.64249 -95.28481 49 ft 16 kts 224°
2026-05-09 00:23 29.64169 -95.28569 51 ft 16 kts 224°
2026-05-09 00:23 29.64099 -95.28646 51 ft 9 kts 223°
2026-05-09 00:23 29.64052 -95.28669 51 ft 7 kts 175°
2026-05-09 00:23 29.64012 -95.28636 51 ft 7 kts 133°
2026-05-09 00:24 29.63989 -95.28609 51 ft 0 kts 134°
2026-05-09 00:27 29.63984 -95.28604 51 ft 4 kts 134°
2026-05-09 00:27 29.63945 -95.28551 51 ft 12 kts 117°
2026-05-09 00:27 29.63981 -95.28453 48 ft 27 kts 44°
2026-05-09 00:27 29.64313 -95.28083 49 ft 104 kts 42°
2026-05-09 00:28 29.64998 -95.27342 90 ft 161 kts 46°
2026-05-09 00:28 29.65865 -95.26411 628 ft 178 kts 44°
2026-05-09 00:28 29.66943 -95.25649 1433 ft 188 kts 17°
2026-05-09 00:28 29.68286 -95.25744 2034 ft 211 kts 339°
2026-05-09 00:29 29.69440 -95.26707 2909 ft 198 kts 311°
2026-05-09 00:29 29.70196 -95.28010 3777 ft 195 kts 292°
2026-05-09 00:29 29.70793 -95.29415 4611 ft 196 kts 293°
2026-05-09 00:29 29.71427 -95.30836 5256 ft 207 kts 292°
2026-05-09 00:30 29.72104 -95.32445 5579 ft 241 kts 292°
2026-05-09 00:30 29.72865 -95.34314 6102 ft 269 kts 292°
2026-05-09 00:30 29.73655 -95.36285 7115 ft 273 kts 291°
2026-05-09 00:30 29.74449 -95.38270 8255 ft 274 kts 291°
2026-05-09 00:31 29.75252 -95.40269 9355 ft 277 kts 291°
2026-05-09 00:31 29.76069 -95.42291 10373 ft 280 kts 291°
2026-05-09 00:31 29.76901 -95.44331 11370 ft 283 kts 291°
2026-05-09 00:31 29.77730 -95.46388 12339 ft 285 kts 287°
2026-05-09 00:32 29.78088 -95.48688 12739 ft 305 kts 269°
2026-05-09 00:32 29.78075 -95.51206 12950 ft 332 kts 267°
2026-05-09 00:32 29.78006 -95.53957 13140 ft 356 kts 266°
2026-05-09 00:32 29.77942 -95.56869 13598 ft 369 kts 267°
2026-05-09 00:33 29.77900 -95.59839 14263 ft 373 kts 268°
2026-05-09 00:33 29.77878 -95.62825 15048 ft 373 kts 268°
2026-05-09 00:33 29.77871 -95.65814 15608 ft 374 kts 269°
2026-05-09 00:33 29.77872 -95.68817 15936 ft 377 kts 269°
2026-05-09 00:34 29.77878 -95.71822 16016 ft 379 kts 269°
2026-05-09 00:34 29.77885 -95.74856 16710 ft 379 kts 269°
2026-05-09 00:34 29.77892 -95.77879 17528 ft 377 kts 269°
2026-05-09 00:34 29.77898 -95.80898 18223 ft 378 kts 270°
2026-05-09 00:35 29.77904 -95.83935 18750 ft 381 kts 269°
2026-05-09 00:35 29.77909 -95.86997 19263 ft 384 kts 269°
2026-05-09 00:35 29.77913 -95.90080 19796 ft 386 kts 269°
2026-05-09 00:35 29.77917 -95.93179 20337 ft 388 kts 269°
2026-05-09 00:36 29.77920 -95.96289 20863 ft 390 kts 268°
2026-05-09 00:36 29.77922 -95.99425 21370 ft 392 kts 268°
2026-05-09 00:36 29.77923 -96.02573 21859 ft 395 kts 268°
2026-05-09 00:36 29.77924 -96.05736 22337 ft 397 kts 268°
2026-05-09 00:37 29.77923 -96.08923 22797 ft 399 kts 268°
2026-05-09 00:37 29.77923 -96.12128 23236 ft 402 kts 267°
2026-05-09 00:37 29.77922 -96.15349 23629 ft 404 kts 267°
2026-05-09 00:37 29.77942 -96.18583 24015 ft 405 kts 269°
2026-05-09 00:38 29.78143 -96.21831 24401 ft 408 kts 271°
2026-05-09 00:38 29.78395 -96.25091 24763 ft 410 kts 271°
2026-05-09 00:38 29.78656 -96.28320 25115 ft 412 kts 271°
2026-05-09 00:38 29.78918 -96.31605 25476 ft 413 kts 271°
2026-05-09 00:39 29.79175 -96.34906 25813 ft 415 kts 271°
2026-05-09 00:39 29.79425 -96.38216 26144 ft 416 kts 271°
2026-05-09 00:39 29.79673 -96.41529 26531 ft 416 kts 271°
2026-05-09 00:39 29.79919 -96.44838 27031 ft 413 kts 271°
2026-05-09 00:40 29.80162 -96.48116 27561 ft 411 kts 270°
2026-05-09 00:40 29.80403 -96.51409 27767 ft 415 kts 270°
2026-05-09 00:40 29.80646 -96.54738 27772 ft 419 kts 270°
2026-05-09 00:41 29.81138 -96.61436 27744 ft 419 kts 270°
2026-05-09 00:41 29.81385 -96.64781 27752 ft 419 kts 270°
2026-05-09 00:41 29.81630 -96.68111 27755 ft 418 kts 270°
2026-05-09 00:41 29.81875 -96.71452 27769 ft 418 kts 270°
2026-05-09 00:42 29.82119 -96.74790 27769 ft 418 kts 270°
2026-05-09 00:42 29.82360 -96.78122 27769 ft 418 kts 270°
2026-05-09 00:42 29.82601 -96.81458 27768 ft 418 kts 270°
2026-05-09 00:42 29.82842 -96.84792 27792 ft 417 kts 270°
2026-05-09 00:43 29.83082 -96.88123 27796 ft 418 kts 270°
2026-05-09 00:43 29.83320 -96.91454 27797 ft 418 kts 270°
2026-05-09 00:43 29.83559 -96.94788 27796 ft 418 kts 270°
2026-05-09 00:43 29.83796 -96.98122 27796 ft 418 kts 270°
2026-05-09 00:44 29.84032 -97.01458 27811 ft 418 kts 270°
2026-05-09 00:44 29.84268 -97.04792 27809 ft 418 kts 270°
2026-05-09 00:44 29.84503 -97.08122 27811 ft 417 kts 270°
2026-05-09 00:44 29.84737 -97.11455 27809 ft 418 kts 270°
2026-05-09 00:45 29.84971 -97.14784 27820 ft 418 kts 270°
2026-05-09 00:45 29.85204 -97.18119 27823 ft 417 kts 270°
2026-05-09 00:45 29.85435 -97.21451 27818 ft 418 kts 270°
2026-05-09 00:45 29.85668 -97.24786 27817 ft 418 kts 270°
2026-05-09 00:46 29.85900 -97.28123 27816 ft 418 kts 270°
2026-05-09 00:46 29.86132 -97.31464 27826 ft 419 kts 270°
2026-05-09 00:46 29.86363 -97.34813 27392 ft 421 kts 270°
2026-05-09 00:46 29.86596 -97.38184 26381 ft 420 kts 271°
2026-05-09 00:47 29.86827 -97.41525 25612 ft 415 kts 271°
2026-05-09 00:47 29.87052 -97.44815 24778 ft 409 kts 271°
2026-05-09 00:47 29.87272 -97.48071 23871 ft 407 kts 271°
2026-05-09 00:47 29.87489 -97.51311 22968 ft 404 kts 271°
2026-05-09 00:48 29.87707 -97.54522 22097 ft 399 kts 272°
2026-05-09 00:48 29.87923 -97.57694 21280 ft 395 kts 272°
2026-05-09 00:48 29.88130 -97.60827 20494 ft 389 kts 272°
2026-05-09 00:48 29.88331 -97.63906 19722 ft 383 kts 272°
2026-05-09 00:49 29.88529 -97.66957 18964 ft 381 kts 272°
2026-05-09 00:49 29.88728 -97.70001 18184 ft 382 kts 273°
2026-05-09 00:49 29.88928 -97.73052 17321 ft 381 kts 273°
2026-05-09 00:49 29.89125 -97.76052 16590 ft 378 kts 273°
2026-05-09 00:50 29.89324 -97.79098 15834 ft 376 kts 272°
2026-05-09 00:50 29.89518 -97.82095 15077 ft 374 kts 272°
2026-05-09 00:50 29.89645 -97.84069 14583 ft 373 kts 271°
2026-05-09 00:50 29.89255 -97.87968 13543 ft 370 kts 251°
2026-05-09 00:51 29.88352 -97.90683 13289 ft 356 kts 248°
2026-05-09 00:51 29.87454 -97.93311 13108 ft 351 kts 248°
2026-05-09 00:51 29.86559 -97.95970 12830 ft 357 kts 248°
2026-05-09 00:51 29.85681 -97.98582 12412 ft 340 kts 248°
2026-05-09 00:52 29.85115 -98.00269 12153 ft 328 kts 249°
2026-05-09 00:52 29.84309 -98.02673 11790 ft 319 kts 249°
2026-05-09 00:52 29.83519 -98.05039 11454 ft 316 kts 249°
2026-05-09 00:52 29.82734 -98.07397 11107 ft 314 kts 249°
2026-05-09 00:53 29.81973 -98.09686 10768 ft 307 kts 249°
2026-05-09 00:53 29.81217 -98.11956 10432 ft 301 kts 249°
2026-05-09 00:53 29.80475 -98.14183 10099 ft 294 kts 249°
2026-05-09 00:53 29.79762 -98.16320 9925 ft 274 kts 249°
2026-05-09 00:54 29.79099 -98.18313 9512 ft 266 kts 249°
2026-05-09 00:54 29.78447 -98.20273 9170 ft 262 kts 249°
2026-05-09 00:54 29.77799 -98.22224 8878 ft 259 kts 249°
2026-05-09 00:54 29.77152 -98.24166 8565 ft 261 kts 249°
2026-05-09 00:55 29.76503 -98.26112 8278 ft 260 kts 249°
2026-05-09 00:55 29.75855 -98.28056 7990 ft 260 kts 249°
2026-05-09 00:55 29.75209 -98.29983 7729 ft 258 kts 249°
2026-05-09 00:55 29.74568 -98.31902 7481 ft 256 kts 249°
2026-05-09 00:56 29.73929 -98.33812 7222 ft 255 kts 249°
2026-05-09 00:56 29.73291 -98.35720 6971 ft 257 kts 248°
2026-05-09 00:56 29.72659 -98.37645 6711 ft 256 kts 249°
2026-05-09 00:56 29.72044 -98.39557 6453 ft 254 kts 249°
2026-05-09 00:57 29.71436 -98.41445 6206 ft 250 kts 249°
2026-05-09 00:57 29.70769 -98.43280 5927 ft 248 kts 244°
2026-05-09 00:57 29.70042 -98.45068 5598 ft 245 kts 244°
2026-05-09 00:57 29.69325 -98.46814 5195 ft 238 kts 244°
2026-05-09 00:58 29.68629 -98.48516 4807 ft 232 kts 244°
2026-05-09 00:58 29.68305 -98.50295 4354 ft 230 kts 273°
2026-05-09 00:58 29.68869 -98.52003 3939 ft 236 kts 305°
2026-05-09 00:58 29.70008 -98.53435 3555 ft 250 kts 313°
2026-05-09 00:59 29.71234 -98.54849 3154 ft 254 kts 313°
2026-05-09 00:59 29.72450 -98.56307 2996 ft 250 kts 306°
2026-05-09 00:59 29.73080 -98.58081 2969 ft 235 kts 273°
2026-05-09 00:59 29.72813 -98.59845 2984 ft 221 kts 240°
2026-05-09 01:00 29.71876 -98.61211 2997 ft 219 kts 225°
2026-05-09 01:00 29.70826 -98.62472 2995 ft 217 kts 224°
2026-05-09 01:00 29.69753 -98.63690 2986 ft 216 kts 217°
2026-05-09 01:00 29.68399 -98.64321 2979 ft 211 kts 183°
2026-05-09 01:01 29.67015 -98.63972 2988 ft 202 kts 156°
2026-05-09 01:01 29.65762 -98.63242 2976 ft 202 kts 148°
2026-05-09 01:01 29.64774 -98.62113 3001 ft 202 kts 131°
2026-05-09 01:01 29.63862 -98.60919 2986 ft 192 kts 134°
2026-05-09 01:02 29.63024 -98.59856 2975 ft 169 kts 134°
2026-05-09 01:02 29.62282 -98.58904 2986 ft 153 kts 134°
2026-05-09 01:02 29.61599 -98.58024 2888 ft 144 kts 133°
2026-05-09 01:02 29.60948 -98.57186 2737 ft 138 kts 134°
2026-05-09 01:03 29.60315 -98.56362 2588 ft 139 kts 134°
2026-05-09 01:03 29.59671 -98.55530 2403 ft 138 kts 134°
2026-05-09 01:03 29.59033 -98.54703 2207 ft 140 kts 132°
2026-05-09 01:03 29.58390 -98.53867 2054 ft 139 kts 132°
2026-05-09 01:04 29.57750 -98.53034 1887 ft 139 kts 133°
2026-05-09 01:04 29.57099 -98.52212 1728 ft 140 kts 132°
2026-05-09 01:04 29.56440 -98.51372 1538 ft 143 kts 130°
2026-05-09 01:04 29.55777 -98.50509 1313 ft 144 kts 128°
2026-05-09 01:05 29.55110 -98.49631 1094 ft 146 kts 130°
2026-05-09 01:05 29.54455 -98.48788 896 ft 138 kts 130°
2026-05-09 01:05 29.53461 -98.47507 797 ft 60 kts 131°
2026-05-09 01:06 29.53304 -98.47319 797 ft 19 kts 152°
2026-05-09 01:06 29.53200 -98.47282 797 ft 13 kts 164°
2026-05-09 01:06 29.53152 -98.47266 769 ft 1 kts 162°
2026-05-09 01:06 29.53147 -98.47264 761 ft 2 kts 162°
2026-05-09 01:07 29.53073 -98.47239 822 ft 14 kts 165°
2026-05-09 01:07 29.53000 -98.47199 797 ft 11 kts 141°
2026-05-09 01:07 29.52949 -98.47140 797 ft 10 kts 130°
2026-05-09 01:07 29.52903 -98.47079 797 ft 10 kts 131°
2026-05-09 01:08 29.52863 -98.47055 797 ft 6 kts 188°
2026-05-09 01:08 29.52831 -98.47078 797 ft 5 kts 222°
2026-05-09 01:08 29.52808 -98.47095 797 ft 3 kts 187°
2026-05-09 01:08 29.52790 -98.47083 797 ft 3 kts 138°
2026-05-09 01:09 29.52775 -98.47068 797 ft 3 kts 139°
2026-05-09 01:09 29.52772 -98.47064 797 ft 0 kts 139°